Location: *
(42.0175°N, 9.4056°E)
Time: 12:32:38
(UTC+00:00)

CZ-2C R/B - Pass Details

Date: 25 August 2019
Orbit: 785 x 870 km, 98.3° (Epoch: 23 October)

Event Time Altitude Azimuth Distance (km) Brightness Sun altitude
Rises 21:15:48 0° 4° (N) 3,330 6.5 -29.7°
Reaches altitude 10° 21:18:16 10° 356° (N) 2,407 5.7 -29.9°
Maximum altitude 21:23:05 36° 292° (WNW) 1,278 4.0 -30.5°
Enters shadow 21:25:16 26° 248° (WSW) 1,583 4.2 -30.7°
